�������l�o���
Date,Time,MP-1(��Sv/h),MP-2(��Sv/h),MP-3(��Sv/h),MP-4(��Sv/h),MP-5(��Sv/h),MP-6(��Sv/h),MP-7(��Sv/h),����,����(m/s),���J
2015/05/16,00:00,0.553,0.338,0.594,0.553,0.481,0.255,0.229,�k,1.8,��
2015/05/16,00:10,0.558,0.334,0.592,0.550,0.480,0.256,0.231,�k,1.5,��
2015/05/16,00:20,0.552,0.338,0.594,0.556,0.483,0.255,0.230,�k�k��,0.9,��
2015/05/16,00:30,0.559,0.335,0.593,0.548,0.480,0.255,0.231,�k�k��,1.1,��
2015/05/16,00:40,0.554,0.336,0.594,0.554,0.480,0.255,0.230,�k�k��,0.8,��
2015/05/16,00:50,0.557,0.335,0.594,0.549,0.479,0.256,0.229,�k�k��,2.2,��
2015/05/16,01:00,0.552,0.337,0.594,0.554,0.483,0.256,0.230,�k,1.6,��
2015/05/16,01:10,0.559,0.336,0.595,0.551,0.478,0.256,0.230,�k�k��,1.6,��
2015/05/16,01:20,0.553,0.334,0.593,0.556,0.482,0.256,0.229,��,0.7,��
2015/05/16,01:30,0.557,0.335,0.596,0.550,0.477,0.255,0.230,-,CALM,��
2015/05/16,01:40,0.553,0.336,0.595,0.552,0.484,0.256,0.231,-,CALM,��
2015/05/16,01:50,0.555,0.336,0.597,0.553,0.478,0.256,0.230,-,CALM,��
2015/05/16,02:00,0.555,0.334,0.593,0.553,0.484,0.257,0.230,-,CALM,��
2015/05/16,02:10,0.557,0.336,0.598,0.553,0.478,0.255,0.231,-,CALM,��
2015/05/16,02:20,0.554,0.334,0.592,0.551,0.484,0.255,0.229,-,CALM,��
2015/05/16,02:30,0.557,0.335,0.599,0.552,0.480,0.256,0.231,�쐼,0.5,��
2015/05/16,02:40,0.553,0.336,0.591,0.550,0.482,0.255,0.230,-,CALM,��
2015/05/16,02:50,0.557,0.337,0.598,0.553,0.480,0.255,0.229,�쐼,1.2,��
2015/05/16,03:00,0.555,0.334,0.592,0.551,0.480,0.256,0.230,��,1.6,��
2015/05/16,03:10,0.554,0.336,0.598,0.553,0.481,0.257,0.230,��쐼,1.3,��
2015/05/16,03:20,0.555,0.336,0.593,0.550,0.480,0.255,0.230,�쐼,1.0,��
2015/05/16,03:30,0.555,0.336,0.597,0.554,0.481,0.257,0.230,��쐼,1.0,��
2015/05/16,03:40,0.557,0.336,0.594,0.551,0.479,0.255,0.231,��쐼,0.6,��
2015/05/16,03:50,0.556,0.336,0.595,0.554,0.483,0.255,0.231,��쐼,0.9,��
2015/05/16,04:00,0.557,0.336,0.595,0.550,0.479,0.256,0.230,��쐼,0.9,��
2015/05/16,04:10,0.552,0.334,0.597,0.554,0.484,0.256,0.231,��쐼,1.7,�L
2015/05/16,04:20,0.557,0.337,0.594,0.551,0.478,0.254,0.229,��쐼,1.6,�L
2015/05/16,04:30,0.555,0.335,0.595,0.550,0.484,0.256,0.231,��,1.6,�L
2015/05/16,04:40,0.557,0.337,0.596,0.555,0.479,0.257,0.230,���쐼,0.8,�L
2015/05/16,04:50,0.557,0.336,0.595,0.552,0.482,0.259,0.232,��,2.5,�L
2015/05/16,05:00,0.561,0.339,0.599,0.558,0.481,0.260,0.234,��쓌,1.0,�L
2015/05/16,05:10,0.558,0.340,0.597,0.556,0.485,0.261,0.237,��쓌,1.8,�L
2015/05/16,05:20,0.566,0.342,0.601,0.559,0.485,0.262,0.237,-,CALM,�L
2015/05/16,05:30,0.559,0.343,0.597,0.555,0.484,0.263,0.236,�k�k��,2.2,�L
2015/05/16,05:40,0.563,0.341,0.601,0.558,0.487,0.263,0.237,�k��,2.4,�L
2015/05/16,05:50,0.559,0.342,0.598,0.555,0.481,0.263,0.237,�k��,2.2,�L
2015/05/16,06:00,0.561,0.340,0.598,0.555,0.485,0.264,0.236,�k��,0.7,�L
2015/05/16,06:10,0.559,0.342,0.597,0.556,0.482,0.262,0.236,��,0.9,�L
2015/05/16,06:20,0.560,0.340,0.597,0.551,0.485,0.261,0.234,-,CALM,�L
2015/05/16,06:30,0.558,0.340,0.596,0.554,0.482,0.260,0.233,�k,0.9,�L
2015/05/16,06:40,0.557,0.337,0.593,0.551,0.483,0.260,0.234,�k��,1.9,�L
2015/05/16,06:50,0.558,0.338,0.593,0.554,0.477,0.258,0.233,�k�k��,2.8,�L
2015/05/16,07:00,0.552,0.336,0.590,0.549,0.479,0.259,0.233,�k,3.1,�L
2015/05/16,07:10,0.556,0.337,0.592,0.551,0.477,0.257,0.232,�k,3.2,�L
2015/05/16,07:20,0.552,0.336,0.588,0.545,0.476,0.256,0.230,�k�k��,4.4,�L
2015/05/16,07:30,0.555,0.333,0.592,0.548,0.479,0.257,0.231,�k,4.4,�L
2015/05/16,07:40,0.550,0.335,0.587,0.546,0.476,0.256,0.229,�k�k��,5.2,�L
2015/05/16,07:50,0.553,0.333,0.593,0.545,0.480,0.256,0.231,�k,6.0,�L
2015/05/16,08:00,0.550,0.336,0.586,0.545,0.474,0.255,0.230,�k,6.4,�L
2015/05/16,08:10,0.554,0.334,0.590,0.543,0.480,0.256,0.229,�k,6.4,�L
2015/05/16,08:20,0.549,0.337,0.586,0.545,0.475,0.257,0.230,�k,5.9,�L
2015/05/16,08:30,0.553,0.334,0.590,0.543,0.480,0.257,0.229,�k,6.2,�L
2015/05/16,08:40,0.550,0.338,0.586,0.545,0.475,0.257,0.231,�k,5.3,�L
2015/05/16,08:50,0.553,0.337,0.584,0.537,0.477,0.260,0.232,�k,6.0,�L
2015/05/16,09:00,0.550,0.340,0.581,0.540,0.475,0.262,0.235,�k�k��,6.6,�L
2015/05/16,09:10,0.552,0.340,0.582,0.539,0.481,0.263,0.234,�k�k��,7.5,�L
2015/05/16,09:20,0.550,0.340,0.584,0.545,0.480,0.263,0.236,�k,5.1,�L
2015/05/16,09:30,0.554,0.339,0.580,0.540,0.480,0.263,0.236,�k,4.2,�L
2015/05/16,09:40,0.549,0.339,0.584,0.545,0.479,0.261,0.233,�k,5.8,�L
2015/05/16,09:50,0.551,0.338,0.581,0.538,0.479,0.262,0.233,�k,5.9,�L
2015/05/16,10:00,0.547,0.337,0.579,0.543,0.477,0.259,0.231,�k,6.7,�L
2015/05/16,10:10,0.546,0.335,0.578,0.536,0.478,0.257,0.229,�k,6.9,�L
2015/05/16,10:20,0.545,0.332,0.578,0.540,0.474,0.257,0.228,�k,5.8,��
2015/05/16,10:30,0.546,0.330,0.576,0.533,0.475,0.253,0.226,�k,5.3,��
2015/05/16,10:40,0.541,0.331,0.573,0.535,0.469,0.253,0.225,�k,4.2,�L
2015/05/16,10:50,0.543,0.328,0.574,0.532,0.476,0.250,0.226,�k�k��,3.9,�L
2015/05/16,11:00,0.541,0.328,0.570,0.533,0.467,0.252,0.222,�k��,2.8,��
2015/05/16,11:10,0.542,0.325,0.574,0.535,0.473,0.249,0.222,�k��,1.9,�L
2015/05/16,11:20,0.537,0.328,0.569,0.527,0.473,0.249,0.221,�k�k��,2.5,�L
2015/05/16,11:30,0.541,0.325,0.573,0.534,0.468,0.250,0.221,�k�k��,1.9,�L
2015/05/16,11:40,0.539,0.326,0.569,0.530,0.474,0.248,0.221,���k��,0.7,��
2015/05/16,11:50,0.543,0.326,0.571,0.534,0.468,0.249,0.221,-,CALM,��
2015/05/16,12:00,0.537,0.327,0.571,0.531,0.470,0.248,0.221,-,CALM,��
2015/05/16,12:10,0.543,0.326,0.570,0.533,0.470,0.248,0.221,-,CALM,��
2015/05/16,12:20,0.538,0.325,0.575,0.532,0.468,0.247,0.220,-,CALM,��
2015/05/16,12:30,0.540,0.327,0.566,0.529,0.472,0.248,0.220,-,CALM,�L
2015/05/16,12:40,0.540,0.325,0.574,0.536,0.467,0.248,0.220,-,CALM,�L
2015/05/16,12:50,0.538,0.327,0.570,0.528,0.474,0.249,0.222,-,CALM,�L
2015/05/16,13:00,0.540,0.325,0.573,0.534,0.469,0.249,0.221,-,CALM,�L
2015/05/16,13:10,0.537,0.328,0.573,0.531,0.469,0.248,0.220,-,CALM,�L
2015/05/16,13:20,0.541,0.326,0.569,0.532,0.473,0.249,0.220,-,CALM,�L
2015/05/16,13:30,0.539,0.324,0.574,0.534,0.467,0.246,0.222,��쐼,1.2,��
2015/05/16,13:40,0.545,0.328,0.570,0.531,0.476,0.248,0.220,��쐼,0.8,��
2015/05/16,13:50,0.539,0.324,0.575,0.535,0.470,0.247,0.221,-,CALM,��
2015/05/16,14:00,0.540,0.326,0.573,0.529,0.466,0.248,0.219,-,CALM,��
2015/05/16,14:10,0.540,0.326,0.564,0.529,0.472,0.248,0.221,��쓌,0.7,��
2015/05/16,14:20,0.535,0.323,0.571,0.532,0.471,0.246,0.221,��쐼,0.7,��
2015/05/16,14:30,0.543,0.327,0.572,0.528,0.467,0.249,0.219,��쐼,1.2,��
2015/05/16,14:40,0.540,0.326,0.567,0.528,0.465,0.247,0.221,��쐼,1.0,��
2015/05/16,14:50,0.535,0.323,0.569,0.534,0.469,0.246,0.219,��쓌,0.6,��
2015/05/16,15:00,0.540,0.325,0.574,0.531,0.472,0.246,0.220,��쓌,0.9,��
2015/05/16,15:10,0.540,0.328,0.571,0.527,0.471,0.248,0.220,�쓌,1.0,��
2015/05/16,15:20,0.537,0.326,0.566,0.534,0.468,0.247,0.220,��,0.9,��
2015/05/16,15:30,0.544,0.324,0.574,0.533,0.468,0.248,0.220,��쓌,1.0,��
2015/05/16,15:40,0.541,0.325,0.573,0.531,0.474,0.248,0.219,��쓌,1.2,��
2015/05/16,15:50,0.538,0.326,0.568,0.535,0.471,0.249,0.220,��,1.3,��
2015/05/16,16:00,0.545,0.323,0.574,0.530,0.468,0.247,0.219,��,1.8,��
2015/05/16,16:10,0.538,0.326,0.578,0.530,0.469,0.247,0.220,��쐼,1.6,��
2015/05/16,16:20,0.542,0.326,0.569,0.537,0.478,0.248,0.222,�쐼,1.4,��
2015/05/16,16:30,0.541,0.326,0.575,0.530,0.473,0.247,0.219,�쐼,1.4,��
2015/05/16,16:40,0.537,0.328,0.573,0.534,0.469,0.248,0.222,��,1.3,��
2015/05/16,16:50,0.543,0.324,0.571,0.536,0.476,0.248,0.220,���k��,1.2,��
2015/05/16,17:00,0.540,0.328,0.580,0.530,0.473,0.247,0.220,-,CALM,��
2015/05/16,17:10,0.543,0.326,0.571,0.537,0.469,0.248,0.220,���k��,0.5,��
2015/05/16,17:20,0.543,0.327,0.573,0.533,0.476,0.247,0.220,�쓌,0.7,��
2015/05/16,17:30,0.538,0.325,0.574,0.534,0.472,0.248,0.221,-,CALM,��
2015/05/16,17:40,0.545,0.326,0.568,0.534,0.470,0.249,0.220,-,CALM,��
2015/05/16,17:50,0.537,0.326,0.578,0.531,0.475,0.248,0.220,���쐼,0.8,��
2015/05/16,18:00,0.545,0.324,0.571,0.535,0.469,0.247,0.221,��,0.7,��
2015/05/16,18:10,0.541,0.328,0.576,0.530,0.474,0.247,0.221,�k��,1.1,��
2015/05/16,18:20,0.541,0.325,0.574,0.537,0.473,0.249,0.221,��,0.9,��
2015/05/16,18:30,0.543,0.327,0.572,0.532,0.473,0.247,0.221,�k�k��,2.4,��
2015/05/16,18:40,0.540,0.326,0.574,0.535,0.471,0.249,0.220,�k��,2.2,��
2015/05/16,18:50,0.543,0.327,0.571,0.535,0.472,0.248,0.219,�k�k��,2.0,��
2015/05/16,19:00,0.539,0.326,0.576,0.531,0.475,0.248,0.220,�k,2.8,��
2015/05/16,19:10,0.544,0.329,0.570,0.533,0.470,0.247,0.220,�k�k��,3.1,��
2015/05/16,19:20,0.540,0.323,0.577,0.533,0.476,0.248,0.220,���k��,3.6,��
2015/05/16,19:30,0.544,0.327,0.570,0.534,0.469,0.247,0.221,���k��,4.7,��
2015/05/16,19:40,0.539,0.325,0.575,0.532,0.474,0.248,0.220,���k��,6.0,�L
2015/05/16,19:50,0.546,0.328,0.570,0.534,0.470,0.247,0.220,�k��,6.4,��
2015/05/16,20:00,0.540,0.325,0.576,0.534,0.476,0.248,0.220,�k��,7.4,��
2015/05/16,20:10,0.545,0.327,0.571,0.535,0.468,0.247,0.220,���k��,5.8,��
2015/05/16,20:20,0.538,0.324,0.577,0.533,0.475,0.250,0.219,��,1.1,��
2015/05/16,20:30,0.543,0.328,0.572,0.537,0.469,0.249,0.222,��쐼,1.6,��
2015/05/16,20:40,0.538,0.325,0.577,0.534,0.474,0.249,0.221,��쓌,3.2,��
2015/05/16,20:50,0.545,0.329,0.571,0.535,0.470,0.247,0.221,��,3.1,��
2015/05/16,21:00,0.539,0.326,0.576,0.532,0.475,0.249,0.220,��쐼,2.0,��
2015/05/16,21:10,0.544,0.327,0.572,0.535,0.469,0.247,0.220,���쐼,1.6,��
2015/05/16,21:20,0.542,0.326,0.573,0.533,0.474,0.248,0.221,��,1.2,��
2015/05/16,21:30,0.542,0.326,0.572,0.535,0.468,0.248,0.220,�k��,1.5,��
2015/05/16,21:40,0.540,0.326,0.575,0.532,0.475,0.249,0.221,-,CALM,��
2015/05/16,21:50,0.544,0.327,0.573,0.534,0.471,0.248,0.221,��,1.9,��
2015/05/16,22:00,0.542,0.326,0.574,0.534,0.476,0.248,0.221,�쐼,1.6,��
2015/05/16,22:10,0.543,0.328,0.573,0.533,0.470,0.249,0.221,��,1.2,��
2015/05/16,22:20,0.540,0.326,0.575,0.534,0.475,0.248,0.219,��,1.6,��
2015/05/16,22:30,0.542,0.327,0.573,0.533,0.469,0.248,0.221,���k��,1.1,��
2015/05/16,22:40,0.541,0.327,0.574,0.531,0.474,0.248,0.220,���k��,0.7,��
2015/05/16,22:50,0.542,0.329,0.573,0.534,0.470,0.248,0.220,�k�k��,1.3,��
2015/05/16,23:00,0.541,0.327,0.577,0.534,0.476,0.248,0.221,�k�k��,1.6,��
2015/05/16,23:10,0.542,0.326,0.573,0.534,0.470,0.248,0.221,�k,2.0,��
2015/05/16,23:20,0.542,0.327,0.574,0.534,0.475,0.249,0.221,�k,4.8,��
2015/05/16,23:30,0.543,0.326,0.574,0.535,0.470,0.248,0.221,�k,5.0,��
2015/05/16,23:40,0.543,0.327,0.573,0.534,0.474,0.248,0.221,�k,5.1,��
2015/05/16,23:50,0.541,0.327,0.574,0.535,0.471,0.248,0.220,�k,5.7,��
